Dewpoint
45 40 38 37 38 37 30 23 29 26 30 30 33 31 24 33 41 47 49 50 51 53 54 55 56 57 57 58 59 58 59 57 55 53 51 49 47 45 44 44 44 43 44 44
43 39 36 35 33 36 28 27 28 29 28 31 30 29 28 29 32 38 45 48 50 49 46 47 50 53 55 56 57 57 58 56 56 55 51 50 47 46 43 42 40 41 41 41
41 41 36 33 31 29 31 33 31 26 26 22 24 24 23 25 29 30 34 40 44 47 47 44 46 49 51 53 55 56 56 56 56 50 46 45 45 46 41 40 38 38 39 39
41 40 35 32 32 29 23 28 29 28 27 23 22 23 21 22 23 26 30 31 33 37 39 41 44 45 48 50 51 54 56 55 52 50 49 49 49 43 43 40 38 37 37 36
35 40 36 35 33 29 29 30 30 32 29 27 21 18 19 15 18 21 23 27 29 32 32 37 42 44 45 46 48 51 54 53 51 50 50 50 46 43 40 37 36 35 34 35
37 41 40 36 36 30 29 25 24 25 28 23 21 18 18 17 18 20 21 22 25 25 30 37 43 44 43 44 45 48 51 51 50 49 48 47 43 39 38 36 35 33 33 33
34 34 39 42 35 35 30 26 27 26 23 20 17 18 19 22 18 17 18 19 24 25 29 40 42 41 41 42 44 46 48 48 49 48 47 46 43 40 38 36 35 32 31 31
29 28 35 40 37 32 32 28 28 21 17 17 18 17 20 21 22 16 20 25 27 33 35 40 41 41 40 41 42 43 46 46 47 47 46 45 41 40 38 37 34 32 30 31
31 29 37 39 39 36 33 30 28 21 18 19 18 16 17 19 18 22 27 28 30 33 35 39 40 40 39 39 40 41 42 43 45 46 45 43 40 39 37 36 32 30 31 30
32 28 35 37 40 38 34 29 29 29 14 13 14 11 18 14 18 19 26 28 30 33 34 36 38 38 38 38 38 39 40 41 42 43 43 41 40 39 37 34 31 29 30 30
31 30 33 35 33 33 33 33 34 31 24 19 16 15 12 13 14 18 22 29 30 33 34 34 36 37 37 36 36 36 38 39 40 40 40 39 38 36 34 32 30 29 30 29
34 32 29 32 33 34 31 33 31 30 24 18 20 19 12 13 15 19 21 28 32 33 34 35 35 36 35 35 34 35 36 37 37 38 37 37 35 33 32 30 28 29 29 29
34 31 27 30 34 32 31 29 33 23 23 20 23 23 10 22 24 25 23 26 30 32 33 35 35 34 34 34 34 33 34 35 35 34 35 33 32 31 30 28 28 28 28 28
37 33 26 22 23 30 29 25 28 30 28 22 21 8 5 17 22 25 25 25 26 29 31 33 34 35 34 34 33 32 31 32 33 31 32 32 30 30 28 27 27 27 28 27
34 30 25 26 25 27 29 28 22 23 27 25 25 18 10 9 16 22 26 28 28 29 32 33 34 35 34 34 33 31 30 30 31 30 30 30 29 28 28 27 27 27 27 26
35 28 26 24 27 25 24 29 28 26 25 22 19 18 17 15 20 22 24 28 29 30 32 33 34 35 34 33 33 31 29 29 29 29 29 28 28 27 27 27 26 26 25 25
34 28 27 25 24 26 21 24 27 27 28 26 25 24 21 18 19 19 18 24 26 30 31 33 34 35 35 33 33 31 29 29 28 28 27 27 26 26 27 27 26 25 25 24
32 31 30 24 22 18 22 22 25 27 27 28 28 23 23 22 20 22 22 22 23 26 30 33 34 35 35 34 33 33 30 28 28 27 27 27 26 26 26 26 26 26 25 24
36 33 25 23 13 20 20 23 24 24 22 25 26 27 25 24 25 24 25 25 25 25 29 31 34 35 34 34 33 32 31 29 28 27 27 27 26 26 25 26 26 26 25 25
35 35 29 21 15 12 18 21 26 25 18 18 26 26 26 26 24 24 26 28 28 28 29 31 33 34 34 33 32 32 31 30 29 28 28 27 27 27 26 26 26 26 26 25
30 30 27 26 22 21 23 23 26 18 19 24 14 21 28 26 26 28 30 31 31 31 30 31 32 33 32 32 32 31 31 31 30 29 28 28 27 27 27 27 26 25 26 26
24 25 26 26 24 21 25 25 22 24 24 16 16 19 25 27 28 29 30 30 31 30 30 31 32 30 26 31 32 31 30 28 28 28 27 27 27 27 27 27 26 25 25 25
27 27 28 28 28 28 30 27 27 26 23 16 18 19 28 28 28 28 29 28 28 29 28 26 28 26 24 24 29 30 28 27 27 28 28 27 26 27 27 27 25 23 23 24
28 31 29 29 29 31 32 30 28 26 26 26 21 25 29 27 25 24 25 24 25 22 23 23 25 25 23 22 25 26 26 24 27 27 24 22 23 22 22 24 25 24 23 23
26 30 28 29 28 28 30 31 30 30 30 24 19 22 28 26 24 22 22 22 21 21 20 24 25 22 20 20 19 20 20 23 24 22 20 20 20 21 20 20 22 23 22 24
27 28 28 27 29 29 30 30 31 29 30 29 23 22 22 25 25 23 21 20 20 19 20 21 20 20 17 18 17 16 16 19 20 20 19 18 19 17 18 18 18 23 26 26
Lifted_Index
2 2 2 2 2 1 1 1 1 1 2 1 1 0 0 0 0 1 1 1 2 2 2 1 1 0 0 -0 -0 -0 -0 -0 -0 0 0 1 1 1 1 1 2 4 6 8
2 2 2 2 2 1 1 1 1 1 2 2 1 1 0 0 1 1 1 1 2 2 2 1 1 0 0 -0 -0 -0 -0 -0 -0 -0 -0 0 0 1 1 1 2 5 7 8
1 2 2 2 2 1 1 1 1 1 1 2 2 1 1 1 2 2 2 2 2 2 2 1 1 1 0 0 -0 -0 -1 -1 -1 -1 -1 -0 -0 0 1 2 4 6 8 8
2 2 2 2 2 2 2 2 1 1 1 1 2 2 2 2 3 3 3 3 3 2 2 2 1 1 1 1 0 -0 -1 -1 -1 -1 -1 -1 -0 1 2 4 5 7 8 8
2 3 3 3 3 3 4 3 3 2 1 1 2 2 2 2 3 4 4 4 4 4 4 3 3 3 3 3 2 1 -0 -0 -1 -1 -1 -1 -0 1 3 5 6 7 8 8
3 3 4 3 4 4 5 4 3 2 1 2 2 3 3 3 3 4 4 5 6 6 5 5 5 5 5 5 4 2 1 0 -0 -1 -1 -1 1 2 4 6 7 7 8 8
3 3 4 4 4 4 5 4 2 1 1 2 4 4 5 5 5 5 5 6 6 6 6 6 5 5 6 5 4 3 1 1 0 -0 -0 1 2 4 5 6 7 8 8 9
2 3 4 4 4 4 4 4 2 1 1 2 4 5 6 7 6 6 6 6 6 5 5 5 5 6 6 5 4 3 2 1 1 1 2 3 4 6 6 7 7 8 9 10
2 2 3 4 5 5 4 4 4 3 2 2 4 5 6 7 7 6 5 5 5 5 5 5 6 6 6 4 3 3 2 2 2 3 4 5 6 7 7 7 8 8 9 11
2 2 3 4 4 5 4 4 4 3 2 1 2 4 5 6 6 5 5 5 5 5 5 6 7 7 6 5 4 3 3 3 3 4 5 6 7 7 8 8 8 9 10 11
2 2 2 3 4 4 4 4 3 2 1 1 1 3 5 5 5 5 5 5 5 5 6 7 8 8 7 6 5 5 5 4 5 5 6 7 8 8 8 8 8 9 11 11
2 2 2 2 3 3 3 3 2 2 2 1 1 3 5 5 5 5 5 5 5 6 7 8 9 9 8 8 7 7 7 7 7 7 8 8 8 8 8 8 8 10 11 11
2 2 2 2 3 3 3 3 2 2 2 2 2 3 4 5 5 6 6 5 6 7 8 8 9 9 9 9 9 9 9 9 9 9 9 9 8 8 7 8 9 10 10 10
3 2 2 2 2 3 2 2 2 2 2 2 2 3 4 5 5 6 6 6 6 7 8 9 9 10 9 9 9 9 9 9 10 10 9 9 8 7 7 8 9 10 10 10
3 2 2 2 3 3 3 3 3 3 3 3 3 3 4 5 5 5 6 6 7 7 8 9 9 9 9 8 8 8 9 9 9 9 9 8 7 7 7 8 9 9 10 10
3 3 2 2 3 3 3 3 4 4 4 4 4 4 5 5 5 5 6 7 8 8 8 9 9 9 9 8 8 8 8 8 9 8 8 7 7 7 8 9 9 9 9 9
3 3 3 2 3 3 3 4 5 5 5 5 5 5 5 5 5 5 6 8 8 9 9 9 9 9 9 8 8 8 8 8 8 7 7 7 7 8 9 9 8 8 8 9
4 3 3 3 3 2 3 5 5 5 5 6 6 6 6 6 6 7 8 9 9 9 9 9 9 9 8 8 8 8 8 7 7 6 6 6 7 8 9 8 7 7 8 8
4 3 3 3 2 3 4 5 5 5 5 6 7 7 7 8 8 8 8 9 9 10 10 9 9 8 8 8 7 7 7 7 6 6 6 6 7 8 8 7 7 7 7 7
3 3 3 2 2 3 4 5 5 5 5 6 7 8 8 8 8 7 8 9 9 10 9 9 9 8 8 7 7 7 6 6 6 6 6 7 7 8 8 7 7 7 6 6
3 3 2 2 2 3 4 4 4 4 4 6 7 8 8 8 8 7 8 8 9 9 9 9 8 8 7 7 7 6 6 6 6 6 7 7 7 7 7 7 6 6 6 5
3 3 2 2 2 3 4 4 4 4 5 6 7 8 8 8 8 8 7 8 8 8 8 8 7 7 7 7 6 6 6 6 6 7 7 7 7 7 7 7 6 6 5 5
3 3 3 3 3 4 4 4 5 5 5 6 6 6 7 7 7 7 7 7 7 7 7 7 6 6 6 6 6 5 5 6 6 6 6 7 7 7 7 6 6 6 6 6
3 3 3 3 4 4 4 4 5 5 5 6 6 6 6 6 7 7 7 7 7 7 6 6 5 5 5 5 5 5 5 6 6 6 6 6 6 6 6 6 6 6 7 7
3 3 3 3 3 3 4 4 5 5 5 5 5 5 6 6 6 6 6 6 6 6 6 5 5 4 4 5 5 5 5 6 6 6 6 6 6 6 6 7 7 7 8 8
4 3 3 3 3 3 4 4 5 6 6 6 5 6 6 7 6 6 6 6 6 5 5 5 5 4 4 4 4 5 5 6 6 7 7 6 6 7 7 7 8 8 8 9